Index of /20260506/WXO-DD/model_caps/3km/12/039
Name Last modified Size Description
Parent Directory -
20260506T12Z_MSC_CAPS_AbsoluteVorticity_IsbL-0250_RLatLon0.03_PT039H.grib2 2026-05-06 18:25 1.1M
20260506T12Z_MSC_CAPS_AbsoluteVorticity_IsbL-0500_RLatLon0.03_PT039H.grib2 2026-05-06 18:25 1.1M
20260506T12Z_MSC_CAPS_AbsoluteVorticity_IsbL-0700_RLatLon0.03_PT039H.grib2 2026-05-06 18:25 1.3M
20260506T12Z_MSC_CAPS_AbsoluteVorticity_IsbL-0850_RLatLon0.03_PT039H.grib2 2026-05-06 18:25 1.5M
20260506T12Z_MSC_CAPS_AbsoluteVorticity_IsbL-1000_RLatLon0.03_PT039H.grib2 2026-05-06 18:25 1.3M
20260506T12Z_MSC_CAPS_AirDensity_AGL-120m_RLatLon0.03_PT039H.grib2 2026-05-06 18:25 1.4M
20260506T12Z_MSC_CAPS_AirDensity_AGL-40m_RLatLon0.03_PT039H.grib2 2026-05-06 18:25 1.4M
20260506T12Z_MSC_CAPS_AirDensity_AGL-80m_RLatLon0.03_PT039H.grib2 2026-05-06 18:25 1.4M
20260506T12Z_MSC_CAPS_AirTemp_AGL-120m_RLatLon0.03_PT039H.grib2 2026-05-06 18:25 1.4M
20260506T12Z_MSC_CAPS_AirTemp_AGL-2m_RLatLon0.03_PT039H.grib2 2026-05-06 18:25 1.7M
20260506T12Z_MSC_CAPS_AirTemp_AGL-40m_RLatLon0.03_PT039H.grib2 2026-05-06 18:25 1.5M
20260506T12Z_MSC_CAPS_AirTemp_AGL-80m_RLatLon0.03_PT039H.grib2 2026-05-06 18:25 1.4M
20260506T12Z_MSC_CAPS_AirTemp_IsbL-0050_RLatLon0.03_PT039H.grib2 2026-05-06 18:25 686K
20260506T12Z_MSC_CAPS_AirTemp_IsbL-0100_RLatLon0.03_PT039H.grib2 2026-05-06 18:25 945K
20260506T12Z_MSC_CAPS_AirTemp_IsbL-0150_RLatLon0.03_PT039H.grib2 2026-05-06 18:25 746K
20260506T12Z_MSC_CAPS_AirTemp_IsbL-0175_RLatLon0.03_PT039H.grib2 2026-05-06 18:25 774K
20260506T12Z_MSC_CAPS_AirTemp_IsbL-0200_RLatLon0.03_PT039H.grib2 2026-05-06 18:25 795K
20260506T12Z_MSC_CAPS_AirTemp_IsbL-0225_RLatLon0.03_PT039H.grib2 2026-05-06 18:25 792K
20260506T12Z_MSC_CAPS_AirTemp_IsbL-0250_RLatLon0.03_PT039H.grib2 2026-05-06 18:25 1.0M
20260506T12Z_MSC_CAPS_AirTemp_IsbL-0275_RLatLon0.03_PT039H.grib2 2026-05-06 18:25 1.0M
20260506T12Z_MSC_CAPS_AirTemp_IsbL-0300_RLatLon0.03_PT039H.grib2 2026-05-06 18:25 1.0M
20260506T12Z_MSC_CAPS_AirTemp_IsbL-0350_RLatLon0.03_PT039H.grib2 2026-05-06 18:25 747K
20260506T12Z_MSC_CAPS_AirTemp_IsbL-0400_RLatLon0.03_PT039H.grib2 2026-05-06 18:25 750K
20260506T12Z_MSC_CAPS_AirTemp_IsbL-0450_RLatLon0.03_PT039H.grib2 2026-05-06 18:25 766K
20260506T12Z_MSC_CAPS_AirTemp_IsbL-0500_RLatLon0.03_PT039H.grib2 2026-05-06 18:25 783K
20260506T12Z_MSC_CAPS_AirTemp_IsbL-0550_RLatLon0.03_PT039H.grib2 2026-05-06 18:25 951K
20260506T12Z_MSC_CAPS_AirTemp_IsbL-0600_RLatLon0.03_PT039H.grib2 2026-05-06 18:25 965K
20260506T12Z_MSC_CAPS_AirTemp_IsbL-0650_RLatLon0.03_PT039H.grib2 2026-05-06 18:25 1.0M
20260506T12Z_MSC_CAPS_AirTemp_IsbL-0700_RLatLon0.03_PT039H.grib2 2026-05-06 18:25 881K
20260506T12Z_MSC_CAPS_AirTemp_IsbL-0750_RLatLon0.03_PT039H.grib2 2026-05-06 18:25 913K
20260506T12Z_MSC_CAPS_AirTemp_IsbL-0800_RLatLon0.03_PT039H.grib2 2026-05-06 18:25 1.1M
20260506T12Z_MSC_CAPS_AirTemp_IsbL-0850_RLatLon0.03_PT039H.grib2 2026-05-06 18:25 1.1M
20260506T12Z_MSC_CAPS_AirTemp_IsbL-0875_RLatLon0.03_PT039H.grib2 2026-05-06 18:25 1.1M
20260506T12Z_MSC_CAPS_AirTemp_IsbL-0900_RLatLon0.03_PT039H.grib2 2026-05-06 18:25 1.0M
20260506T12Z_MSC_CAPS_AirTemp_IsbL-0925_RLatLon0.03_PT039H.grib2 2026-05-06 18:25 1.1M
20260506T12Z_MSC_CAPS_AirTemp_IsbL-0950_RLatLon0.03_PT039H.grib2 2026-05-06 18:25 1.1M
20260506T12Z_MSC_CAPS_AirTemp_IsbL-0970_RLatLon0.03_PT039H.grib2 2026-05-06 18:25 1.1M
20260506T12Z_MSC_CAPS_AirTemp_IsbL-0985_RLatLon0.03_PT039H.grib2 2026-05-06 18:25 1.0M
20260506T12Z_MSC_CAPS_AirTemp_IsbL-1000_RLatLon0.03_PT039H.grib2 2026-05-06 18:25 1.0M
20260506T12Z_MSC_CAPS_AirTemp_IsbL-1015_RLatLon0.03_PT039H.grib2 2026-05-06 18:25 1.1M
20260506T12Z_MSC_CAPS_Albedo_Sfc_RLatLon0.03_PT039H.grib2 2026-05-06 18:25 2.7M
20260506T12Z_MSC_CAPS_CAPE_Sfc_RLatLon0.03_PT039H.grib2 2026-05-06 18:25 295K
20260506T12Z_MSC_CAPS_CloudWater_EAtm_RLatLon0.03_PT039H.grib2 2026-05-06 18:25 1.6M
20260506T12Z_MSC_CAPS_ConvectivePrecip-Accum_Sfc_RLatLon0.03_PT039H.grib2 2026-05-06 18:25 4.9M
20260506T12Z_MSC_CAPS_DewPointDepression_AGL-120m_RLatLon0.03_PT039H.grib2 2026-05-06 18:25 2.1M
20260506T12Z_MSC_CAPS_DewPointDepression_AGL-2m_RLatLon0.03_PT039H.grib2 2026-05-06 18:25 2.2M
20260506T12Z_MSC_CAPS_DewPointDepression_AGL-40m_RLatLon0.03_PT039H.grib2 2026-05-06 18:25 2.2M
20260506T12Z_MSC_CAPS_DewPointDepression_AGL-80m_RLatLon0.03_PT039H.grib2 2026-05-06 18:25 2.2M
20260506T12Z_MSC_CAPS_DewPointDepression_IsbL-0050_RLatLon0.03_PT039H.grib2 2026-05-06 18:25 1.3K
20260506T12Z_MSC_CAPS_DewPointDepression_IsbL-0100_RLatLon0.03_PT039H.grib2 2026-05-06 18:25 49K
20260506T12Z_MSC_CAPS_DewPointDepression_IsbL-0150_RLatLon0.03_PT039H.grib2 2026-05-06 18:25 71K
20260506T12Z_MSC_CAPS_DewPointDepression_IsbL-0175_RLatLon0.03_PT039H.grib2 2026-05-06 18:25 221K
20260506T12Z_MSC_CAPS_DewPointDepression_IsbL-0200_RLatLon0.03_PT039H.grib2 2026-05-06 18:25 410K
20260506T12Z_MSC_CAPS_DewPointDepression_IsbL-0225_RLatLon0.03_PT039H.grib2 2026-05-06 18:25 586K
20260506T12Z_MSC_CAPS_DewPointDepression_IsbL-0250_RLatLon0.03_PT039H.grib2 2026-05-06 18:25 869K
20260506T12Z_MSC_CAPS_DewPointDepression_IsbL-0275_RLatLon0.03_PT039H.grib2 2026-05-06 18:25 1.0M
20260506T12Z_MSC_CAPS_DewPointDepression_IsbL-0300_RLatLon0.03_PT039H.grib2 2026-05-06 18:25 1.1M
20260506T12Z_MSC_CAPS_DewPointDepression_IsbL-0350_RLatLon0.03_PT039H.grib2 2026-05-06 18:25 1.1M
20260506T12Z_MSC_CAPS_DewPointDepression_IsbL-0400_RLatLon0.03_PT039H.grib2 2026-05-06 18:25 1.1M
20260506T12Z_MSC_CAPS_DewPointDepression_IsbL-0450_RLatLon0.03_PT039H.grib2 2026-05-06 18:25 1.2M
20260506T12Z_MSC_CAPS_DewPointDepression_IsbL-0500_RLatLon0.03_PT039H.grib2 2026-05-06 18:25 1.2M
20260506T12Z_MSC_CAPS_DewPointDepression_IsbL-0550_RLatLon0.03_PT039H.grib2 2026-05-06 18:25 1.3M
20260506T12Z_MSC_CAPS_DewPointDepression_IsbL-0600_RLatLon0.03_PT039H.grib2 2026-05-06 18:25 1.3M
20260506T12Z_MSC_CAPS_DewPointDepression_IsbL-0650_RLatLon0.03_PT039H.grib2 2026-05-06 18:25 1.3M
20260506T12Z_MSC_CAPS_DewPointDepression_IsbL-0700_RLatLon0.03_PT039H.grib2 2026-05-06 18:25 1.4M
20260506T12Z_MSC_CAPS_DewPointDepression_IsbL-0750_RLatLon0.03_PT039H.grib2 2026-05-06 18:25 1.4M
20260506T12Z_MSC_CAPS_DewPointDepression_IsbL-0800_RLatLon0.03_PT039H.grib2 2026-05-06 18:25 1.4M
20260506T12Z_MSC_CAPS_DewPointDepression_IsbL-0850_RLatLon0.03_PT039H.grib2 2026-05-06 18:25 1.4M
20260506T12Z_MSC_CAPS_DewPointDepression_IsbL-0875_RLatLon0.03_PT039H.grib2 2026-05-06 18:25 1.4M
20260506T12Z_MSC_CAPS_DewPointDepression_IsbL-0900_RLatLon0.03_PT039H.grib2 2026-05-06 18:25 1.4M
20260506T12Z_MSC_CAPS_DewPointDepression_IsbL-0925_RLatLon0.03_PT039H.grib2 2026-05-06 18:25 1.4M
20260506T12Z_MSC_CAPS_DewPointDepression_IsbL-0950_RLatLon0.03_PT039H.grib2 2026-05-06 18:25 1.4M
20260506T12Z_MSC_CAPS_DewPointDepression_IsbL-0970_RLatLon0.03_PT039H.grib2 2026-05-06 18:25 1.4M
20260506T12Z_MSC_CAPS_DewPointDepression_IsbL-0985_RLatLon0.03_PT039H.grib2 2026-05-06 18:25 1.4M
20260506T12Z_MSC_CAPS_DewPointDepression_IsbL-1000_RLatLon0.03_PT039H.grib2 2026-05-06 18:25 1.4M
20260506T12Z_MSC_CAPS_DewPointDepression_IsbL-1015_RLatLon0.03_PT039H.grib2 2026-05-06 18:25 1.4M
20260506T12Z_MSC_CAPS_DewPoint_AGL-120m_RLatLon0.03_PT039H.grib2 2026-05-06 18:25 3.7M
20260506T12Z_MSC_CAPS_DewPoint_AGL-2m_RLatLon0.03_PT039H.grib2 2026-05-06 18:25 2.2M
20260506T12Z_MSC_CAPS_DewPoint_AGL-40m_RLatLon0.03_PT039H.grib2 2026-05-06 18:25 3.8M
20260506T12Z_MSC_CAPS_DewPoint_AGL-80m_RLatLon0.03_PT039H.grib2 2026-05-06 18:25 3.7M
20260506T12Z_MSC_CAPS_DownwardLongwaveRadiationFlux-Accum_Sfc_RLatLon0.03_PT039H.grib2 2026-05-06 18:25 2.7M
20260506T12Z_MSC_CAPS_DownwardShortwaveRadiationFlux-Accum_NTAtm_RLatLon0.03_PT039H.grib2 2026-05-06 18:25 390K
20260506T12Z_MSC_CAPS_DownwardShortwaveRadiationFlux-Accum_Sfc_RLatLon0.03_PT039H.grib2 2026-05-06 18:25 3.1M
20260506T12Z_MSC_CAPS_FreezingRain-Accum_Sfc_RLatLon0.03_PT039H.grib2 2026-05-06 18:25 1.0M
20260506T12Z_MSC_CAPS_GeopotentialHeight_IsbL-0050_RLatLon0.03_PT039H.grib2 2026-05-06 18:25 830K
20260506T12Z_MSC_CAPS_GeopotentialHeight_IsbL-0100_RLatLon0.03_PT039H.grib2 2026-05-06 18:25 744K
20260506T12Z_MSC_CAPS_GeopotentialHeight_IsbL-0150_RLatLon0.03_PT039H.grib2 2026-05-06 18:25 597K
20260506T12Z_MSC_CAPS_GeopotentialHeight_IsbL-0175_RLatLon0.03_PT039H.grib2 2026-05-06 18:25 714K
20260506T12Z_MSC_CAPS_GeopotentialHeight_IsbL-0200_RLatLon0.03_PT039H.grib2 2026-05-06 18:25 735K
20260506T12Z_MSC_CAPS_GeopotentialHeight_IsbL-0225_RLatLon0.03_PT039H.grib2 2026-05-06 18:25 748K
20260506T12Z_MSC_CAPS_GeopotentialHeight_IsbL-0250_RLatLon0.03_PT039H.grib2 2026-05-06 18:25 761K
20260506T12Z_MSC_CAPS_GeopotentialHeight_IsbL-0275_RLatLon0.03_PT039H.grib2 2026-05-06 18:25 770K
20260506T12Z_MSC_CAPS_GeopotentialHeight_IsbL-0300_RLatLon0.03_PT039H.grib2 2026-05-06 18:25 772K
20260506T12Z_MSC_CAPS_GeopotentialHeight_IsbL-0350_RLatLon0.03_PT039H.grib2 2026-05-06 18:25 773K
20260506T12Z_MSC_CAPS_GeopotentialHeight_IsbL-0400_RLatLon0.03_PT039H.grib2 2026-05-06 18:25 770K
20260506T12Z_MSC_CAPS_GeopotentialHeight_IsbL-0450_RLatLon0.03_PT039H.grib2 2026-05-06 18:25 762K
20260506T12Z_MSC_CAPS_GeopotentialHeight_IsbL-0500_RLatLon0.03_PT039H.grib2 2026-05-06 18:25 751K
20260506T12Z_MSC_CAPS_GeopotentialHeight_IsbL-0550_RLatLon0.03_PT039H.grib2 2026-05-06 18:25 741K
20260506T12Z_MSC_CAPS_GeopotentialHeight_IsbL-0600_RLatLon0.03_PT039H.grib2 2026-05-06 18:25 626K
20260506T12Z_MSC_CAPS_GeopotentialHeight_IsbL-0650_RLatLon0.03_PT039H.grib2 2026-05-06 18:25 624K
20260506T12Z_MSC_CAPS_GeopotentialHeight_IsbL-0700_RLatLon0.03_PT039H.grib2 2026-05-06 18:25 621K
20260506T12Z_MSC_CAPS_GeopotentialHeight_IsbL-0750_RLatLon0.03_PT039H.grib2 2026-05-06 18:25 622K
20260506T12Z_MSC_CAPS_GeopotentialHeight_IsbL-0800_RLatLon0.03_PT039H.grib2 2026-05-06 18:25 620K
20260506T12Z_MSC_CAPS_GeopotentialHeight_IsbL-0850_RLatLon0.03_PT039H.grib2 2026-05-06 18:25 624K
20260506T12Z_MSC_CAPS_GeopotentialHeight_IsbL-0875_RLatLon0.03_PT039H.grib2 2026-05-06 18:25 629K
20260506T12Z_MSC_CAPS_GeopotentialHeight_IsbL-0900_RLatLon0.03_PT039H.grib2 2026-05-06 18:25 637K
20260506T12Z_MSC_CAPS_GeopotentialHeight_IsbL-0925_RLatLon0.03_PT039H.grib2 2026-05-06 18:25 644K
20260506T12Z_MSC_CAPS_GeopotentialHeight_IsbL-0950_RLatLon0.03_PT039H.grib2 2026-05-06 18:25 652K
20260506T12Z_MSC_CAPS_GeopotentialHeight_IsbL-0970_RLatLon0.03_PT039H.grib2 2026-05-06 18:25 660K
20260506T12Z_MSC_CAPS_GeopotentialHeight_IsbL-0985_RLatLon0.03_PT039H.grib2 2026-05-06 18:25 667K
20260506T12Z_MSC_CAPS_GeopotentialHeight_IsbL-1000_RLatLon0.03_PT039H.grib2 2026-05-06 18:25 672K
20260506T12Z_MSC_CAPS_GeopotentialHeight_IsbL-1015_RLatLon0.03_PT039H.grib2 2026-05-06 18:25 680K
20260506T12Z_MSC_CAPS_GeopotentialHeight_Sfc_RLatLon0.03_PT039H.grib2 2026-05-06 18:25 1.0M
20260506T12Z_MSC_CAPS_IcePellets-Accum_Sfc_RLatLon0.03_PT039H.grib2 2026-05-06 18:25 33K
20260506T12Z_MSC_CAPS_LatentHeatNetFlux_Sfc_RLatLon0.03_PT039H.grib2 2026-05-06 18:25 1.9M
20260506T12Z_MSC_CAPS_LiftedIndex-MU-VT_IsbL-0500_RLatLon0.03_PT039H.grib2 2026-05-06 18:25 3.3M
20260506T12Z_MSC_CAPS_MixedLayerThickness_Sfc_RLatLon0.03_PT039H.nc 2026-05-06 18:13 17M
20260506T12Z_MSC_CAPS_NetLongwaveRadiationFlux-Accum_Sfc_RLatLon0.03_PT039H.grib2 2026-05-06 18:25 2.9M
20260506T12Z_MSC_CAPS_NetShortwaveRadiationFlux-Accum_Sfc_RLatLon0.03_PT039H.grib2 2026-05-06 18:25 2.9M
20260506T12Z_MSC_CAPS_PlanetaryBoundaryLayerHeight_Sfc_RLatLon0.03_PT039H.grib2 2026-05-06 18:25 3.1M
20260506T12Z_MSC_CAPS_Precip-Accum_Sfc_RLatLon0.03_PT039H.grib2 2026-05-06 18:25 5.6M
20260506T12Z_MSC_CAPS_PrecipRate_Sfc_RLatLon0.03_PT039H.grib2 2026-05-06 18:25 362K
20260506T12Z_MSC_CAPS_PrecipType-Instant_Sfc_RLatLon0.03_PT039H.grib2 2026-05-06 18:25 2.1M
20260506T12Z_MSC_CAPS_Pressure_MSL_RLatLon0.03_PT039H.grib2 2026-05-06 18:25 907K
20260506T12Z_MSC_CAPS_Pressure_Sfc_RLatLon0.03_PT039H.grib2 2026-05-06 18:25 1.2M
20260506T12Z_MSC_CAPS_RadiativeTemp_Sfc_RLatLon0.03_PT039H.grib2 2026-05-06 18:25 2.1M
20260506T12Z_MSC_CAPS_Rain-Accum_Sfc_RLatLon0.03_PT039H.grib2 2026-05-06 18:25 2.8M
20260506T12Z_MSC_CAPS_RelativeHumidity_AGL-120m_RLatLon0.03_PT039H.grib2 2026-05-06 18:25 2.8M
20260506T12Z_MSC_CAPS_RelativeHumidity_AGL-2m_RLatLon0.03_PT039H.grib2 2026-05-06 18:25 3.0M
20260506T12Z_MSC_CAPS_RelativeHumidity_AGL-40m_RLatLon0.03_PT039H.grib2 2026-05-06 18:25 2.9M
20260506T12Z_MSC_CAPS_RelativeHumidity_AGL-80m_RLatLon0.03_PT039H.grib2 2026-05-06 18:25 2.9M
20260506T12Z_MSC_CAPS_RelativeHumidity_IsbL-0050_RLatLon0.03_PT039H.grib2 2026-05-06 18:25 968K
20260506T12Z_MSC_CAPS_RelativeHumidity_IsbL-0100_RLatLon0.03_PT039H.grib2 2026-05-06 18:25 1.1M
20260506T12Z_MSC_CAPS_RelativeHumidity_IsbL-0150_RLatLon0.03_PT039H.grib2 2026-05-06 18:25 578K
20260506T12Z_MSC_CAPS_RelativeHumidity_IsbL-0175_RLatLon0.03_PT039H.grib2 2026-05-06 18:25 476K
20260506T12Z_MSC_CAPS_RelativeHumidity_IsbL-0200_RLatLon0.03_PT039H.grib2 2026-05-06 18:25 679K
20260506T12Z_MSC_CAPS_RelativeHumidity_IsbL-0225_RLatLon0.03_PT039H.grib2 2026-05-06 18:25 918K
20260506T12Z_MSC_CAPS_RelativeHumidity_IsbL-0250_RLatLon0.03_PT039H.grib2 2026-05-06 18:25 1.1M
20260506T12Z_MSC_CAPS_RelativeHumidity_IsbL-0275_RLatLon0.03_PT039H.grib2 2026-05-06 18:25 1.4M
20260506T12Z_MSC_CAPS_RelativeHumidity_IsbL-0300_RLatLon0.03_PT039H.grib2 2026-05-06 18:25 1.7M
20260506T12Z_MSC_CAPS_RelativeHumidity_IsbL-0350_RLatLon0.03_PT039H.grib2 2026-05-06 18:25 2.0M
20260506T12Z_MSC_CAPS_RelativeHumidity_IsbL-0400_RLatLon0.03_PT039H.grib2 2026-05-06 18:25 2.1M
20260506T12Z_MSC_CAPS_RelativeHumidity_IsbL-0450_RLatLon0.03_PT039H.grib2 2026-05-06 18:25 2.3M
20260506T12Z_MSC_CAPS_RelativeHumidity_IsbL-0500_RLatLon0.03_PT039H.grib2 2026-05-06 18:25 2.2M
20260506T12Z_MSC_CAPS_RelativeHumidity_IsbL-0550_RLatLon0.03_PT039H.grib2 2026-05-06 18:25 2.3M
20260506T12Z_MSC_CAPS_RelativeHumidity_IsbL-0600_RLatLon0.03_PT039H.grib2 2026-05-06 18:25 2.4M
20260506T12Z_MSC_CAPS_RelativeHumidity_IsbL-0650_RLatLon0.03_PT039H.grib2 2026-05-06 18:25 2.4M
20260506T12Z_MSC_CAPS_RelativeHumidity_IsbL-0700_RLatLon0.03_PT039H.grib2 2026-05-06 18:25 2.4M
20260506T12Z_MSC_CAPS_RelativeHumidity_IsbL-0750_RLatLon0.03_PT039H.grib2 2026-05-06 18:25 2.5M
20260506T12Z_MSC_CAPS_RelativeHumidity_IsbL-0800_RLatLon0.03_PT039H.grib2 2026-05-06 18:25 2.6M
20260506T12Z_MSC_CAPS_RelativeHumidity_IsbL-0850_RLatLon0.03_PT039H.grib2 2026-05-06 18:25 2.7M
20260506T12Z_MSC_CAPS_RelativeHumidity_IsbL-0875_RLatLon0.03_PT039H.grib2 2026-05-06 18:25 2.7M
20260506T12Z_MSC_CAPS_RelativeHumidity_IsbL-0900_RLatLon0.03_PT039H.grib2 2026-05-06 18:25 2.7M
20260506T12Z_MSC_CAPS_RelativeHumidity_IsbL-0925_RLatLon0.03_PT039H.grib2 2026-05-06 18:25 2.8M
20260506T12Z_MSC_CAPS_RelativeHumidity_IsbL-0950_RLatLon0.03_PT039H.grib2 2026-05-06 18:25 2.8M
20260506T12Z_MSC_CAPS_RelativeHumidity_IsbL-0970_RLatLon0.03_PT039H.grib2 2026-05-06 18:25 2.9M
20260506T12Z_MSC_CAPS_RelativeHumidity_IsbL-0985_RLatLon0.03_PT039H.grib2 2026-05-06 18:25 2.9M
20260506T12Z_MSC_CAPS_RelativeHumidity_IsbL-1000_RLatLon0.03_PT039H.grib2 2026-05-06 18:25 2.9M
20260506T12Z_MSC_CAPS_RelativeHumidity_IsbL-1015_RLatLon0.03_PT039H.grib2 2026-05-06 18:25 3.0M
20260506T12Z_MSC_CAPS_Runoff-Accum_Sfc_RLatLon0.03_PT039H.grib2 2026-05-06 18:25 328K
20260506T12Z_MSC_CAPS_SeaIceAreaFraction_Sfc_RLatLon0.03_PT039H.nc 2026-05-06 18:13 15M
20260506T12Z_MSC_CAPS_SeaIceCompressiveStrength_Sfc_RLatLon0.03_PT039H.nc 2026-05-06 18:13 15M
20260506T12Z_MSC_CAPS_SeaIceDivergence_Sfc_RLatLon0.03_PT039H.nc 2026-05-06 18:13 15M
20260506T12Z_MSC_CAPS_SeaIceInternalPressure_Sfc_RLatLon0.03_PT039H.nc 2026-05-06 18:13 15M
20260506T12Z_MSC_CAPS_SeaIceShear_Sfc_RLatLon0.03_PT039H.nc 2026-05-06 18:13 14M
20260506T12Z_MSC_CAPS_SeaIceSnowTemp_Sfc_RLatLon0.03_PT039H.nc 2026-05-06 18:13 14M
20260506T12Z_MSC_CAPS_SeaIceSnowVolume_Sfc_RLatLon0.03_PT039H.nc 2026-05-06 18:13 15M
20260506T12Z_MSC_CAPS_SeaIceVelocityX_Sfc_RLatLon0.03_PT039H.nc 2026-05-06 18:13 15M
20260506T12Z_MSC_CAPS_SeaIceVelocityY_Sfc_RLatLon0.03_PT039H.nc 2026-05-06 18:13 15M
20260506T12Z_MSC_CAPS_SeaIceVolume_Sfc_RLatLon0.03_PT039H.nc 2026-05-06 18:13 15M
20260506T12Z_MSC_CAPS_SeaSurfaceHeight_Sfc_RLatLon0.03_PT039H.nc 2026-05-06 18:13 16M
20260506T12Z_MSC_CAPS_SeaWaterSalinity_DBS-0.5m_RLatLon0.03_PT039H.nc 2026-05-06 18:13 16M
20260506T12Z_MSC_CAPS_SeaWaterSalinity_DBS-all_RLatLon0.03_PT039H.nc 2026-05-06 18:13 107M
20260506T12Z_MSC_CAPS_SeaWaterTemp_DBS-0.5m_RLatLon0.03_PT039H.nc 2026-05-06 18:13 15M
20260506T12Z_MSC_CAPS_SeaWaterTemp_DBS-all_RLatLon0.03_PT039H.nc 2026-05-06 18:13 88M
20260506T12Z_MSC_CAPS_SeaWaterVelocityX_DBS-0.5m_RLatLon0.03_PT039H.nc 2026-05-06 18:13 17M
20260506T12Z_MSC_CAPS_SeaWaterVelocityX_DBS-all_RLatLon0.03_PT039H.nc 2026-05-06 18:13 210M
20260506T12Z_MSC_CAPS_SeaWaterVelocityY_DBS-0.5m_RLatLon0.03_PT039H.nc 2026-05-06 18:13 17M
20260506T12Z_MSC_CAPS_SeaWaterVelocityY_DBS-all_RLatLon0.03_PT039H.nc 2026-05-06 18:13 214M
20260506T12Z_MSC_CAPS_SensibleHeatNetFlux_Sfc_RLatLon0.03_PT039H.grib2 2026-05-06 18:25 2.1M
20260506T12Z_MSC_CAPS_ShowalterIndex_IsbL-0500_RLatLon0.03_PT039H.grib2 2026-05-06 18:25 4.3M
20260506T12Z_MSC_CAPS_Snow-Accum_Sfc_RLatLon0.03_PT039H.grib2 2026-05-06 18:25 4.3M
20260506T12Z_MSC_CAPS_SnowDensity_Sfc_RLatLon0.03_PT039H.grib2 2026-05-06 18:25 1.3M
20260506T12Z_MSC_CAPS_SnowDepthWaterEquivalent_Sfc_RLatLon0.03_PT039H.grib2 2026-05-06 18:25 647K
20260506T12Z_MSC_CAPS_SnowDepth_Sfc_RLatLon0.03_PT039H.grib2 2026-05-06 18:25 1.1M
20260506T12Z_MSC_CAPS_SoilTemp_DBS-0to10cm_RLatLon0.03_PT039H.grib2 2026-05-06 18:25 1.7M
20260506T12Z_MSC_CAPS_SoilTemp_Sfc_RLatLon0.03_PT039H.grib2 2026-05-06 18:25 1.8M
20260506T12Z_MSC_CAPS_SoilVolumetricIceContent_Sfc_RLatLon0.03_PT039H.grib2 2026-05-06 18:25 1.4M
20260506T12Z_MSC_CAPS_SoilVolumetricWaterContent_DBS-0to10cm_RLatLon0.03_PT039H.grib2 2026-05-06 18:25 1.4M
20260506T12Z_MSC_CAPS_SoilVolumetricWaterContent_DBS-0to1cm_RLatLon0.03_PT039H.grib2 2026-05-06 18:25 1.8M
20260506T12Z_MSC_CAPS_SpecificHumidity_AGL-120m_RLatLon0.03_PT039H.grib2 2026-05-06 18:25 1.5M
20260506T12Z_MSC_CAPS_SpecificHumidity_AGL-2m_RLatLon0.03_PT039H.grib2 2026-05-06 18:25 1.8M
20260506T12Z_MSC_CAPS_SpecificHumidity_AGL-40m_RLatLon0.03_PT039H.grib2 2026-05-06 18:25 1.6M
20260506T12Z_MSC_CAPS_SpecificHumidity_AGL-80m_RLatLon0.03_PT039H.grib2 2026-05-06 18:25 1.5M
20260506T12Z_MSC_CAPS_SpecificHumidity_IsbL-0050_RLatLon0.03_PT039H.grib2 2026-05-06 18:25 926K
20260506T12Z_MSC_CAPS_SpecificHumidity_IsbL-0100_RLatLon0.03_PT039H.grib2 2026-05-06 18:25 1.0M
20260506T12Z_MSC_CAPS_SpecificHumidity_IsbL-0150_RLatLon0.03_PT039H.grib2 2026-05-06 18:25 1.0M
20260506T12Z_MSC_CAPS_SpecificHumidity_IsbL-0175_RLatLon0.03_PT039H.grib2 2026-05-06 18:25 1.0M
20260506T12Z_MSC_CAPS_SpecificHumidity_IsbL-0200_RLatLon0.03_PT039H.grib2 2026-05-06 18:25 908K
20260506T12Z_MSC_CAPS_SpecificHumidity_IsbL-0225_RLatLon0.03_PT039H.grib2 2026-05-06 18:25 870K
20260506T12Z_MSC_CAPS_SpecificHumidity_IsbL-0250_RLatLon0.03_PT039H.grib2 2026-05-06 18:25 1.1M
20260506T12Z_MSC_CAPS_SpecificHumidity_IsbL-0275_RLatLon0.03_PT039H.grib2 2026-05-06 18:25 1.1M
20260506T12Z_MSC_CAPS_SpecificHumidity_IsbL-0300_RLatLon0.03_PT039H.grib2 2026-05-06 18:25 1.1M
20260506T12Z_MSC_CAPS_SpecificHumidity_IsbL-0350_RLatLon0.03_PT039H.grib2 2026-05-06 18:25 1.0M
20260506T12Z_MSC_CAPS_SpecificHumidity_IsbL-0400_RLatLon0.03_PT039H.grib2 2026-05-06 18:25 1.0M
20260506T12Z_MSC_CAPS_SpecificHumidity_IsbL-0450_RLatLon0.03_PT039H.grib2 2026-05-06 18:25 1.3M
20260506T12Z_MSC_CAPS_SpecificHumidity_IsbL-0500_RLatLon0.03_PT039H.grib2 2026-05-06 18:25 1.1M
20260506T12Z_MSC_CAPS_SpecificHumidity_IsbL-0550_RLatLon0.03_PT039H.grib2 2026-05-06 18:25 1.3M
20260506T12Z_MSC_CAPS_SpecificHumidity_IsbL-0600_RLatLon0.03_PT039H.grib2 2026-05-06 18:25 1.5M
20260506T12Z_MSC_CAPS_SpecificHumidity_IsbL-0650_RLatLon0.03_PT039H.grib2 2026-05-06 18:25 1.3M
20260506T12Z_MSC_CAPS_SpecificHumidity_IsbL-0700_RLatLon0.03_PT039H.grib2 2026-05-06 18:25 1.4M
20260506T12Z_MSC_CAPS_SpecificHumidity_IsbL-0750_RLatLon0.03_PT039H.grib2 2026-05-06 18:25 1.5M
20260506T12Z_MSC_CAPS_SpecificHumidity_IsbL-0800_RLatLon0.03_PT039H.grib2 2026-05-06 18:25 1.7M
20260506T12Z_MSC_CAPS_SpecificHumidity_IsbL-0850_RLatLon0.03_PT039H.grib2 2026-05-06 18:25 1.8M
20260506T12Z_MSC_CAPS_SpecificHumidity_IsbL-0875_RLatLon0.03_PT039H.grib2 2026-05-06 18:25 1.9M
20260506T12Z_MSC_CAPS_SpecificHumidity_IsbL-0900_RLatLon0.03_PT039H.grib2 2026-05-06 18:25 1.6M
20260506T12Z_MSC_CAPS_SpecificHumidity_IsbL-0925_RLatLon0.03_PT039H.grib2 2026-05-06 18:25 1.6M
20260506T12Z_MSC_CAPS_SpecificHumidity_IsbL-0950_RLatLon0.03_PT039H.grib2 2026-05-06 18:25 1.7M
20260506T12Z_MSC_CAPS_SpecificHumidity_IsbL-0970_RLatLon0.03_PT039H.grib2 2026-05-06 18:25 1.7M
20260506T12Z_MSC_CAPS_SpecificHumidity_IsbL-0985_RLatLon0.03_PT039H.grib2 2026-05-06 18:25 1.8M
20260506T12Z_MSC_CAPS_SpecificHumidity_IsbL-1000_RLatLon0.03_PT039H.grib2 2026-05-06 18:25 1.8M
20260506T12Z_MSC_CAPS_SpecificHumidity_IsbL-1015_RLatLon0.03_PT039H.grib2 2026-05-06 18:25 1.8M
20260506T12Z_MSC_CAPS_SpecificHumidity_Sfc_RLatLon0.03_PT039H.grib2 2026-05-06 18:25 2.1M
20260506T12Z_MSC_CAPS_StormRelativeHelicity_Sfc_RLatLon0.03_PT039H.grib2 2026-05-06 18:25 3.1M
20260506T12Z_MSC_CAPS_Thickness_IsbL-1000to0500_RLatLon0.03_PT039H.grib2 2026-05-06 18:25 412K
20260506T12Z_MSC_CAPS_TotalCloudCover_Sfc_RLatLon0.03_PT039H.grib2 2026-05-06 18:25 3.8M
20260506T12Z_MSC_CAPS_TurboclineDepth_Sfc_RLatLon0.03_PT039H.nc 2026-05-06 18:13 16M
20260506T12Z_MSC_CAPS_UpwardLongwaveRadiationFlux_NTAtm_RLatLon0.03_PT039H.grib2 2026-05-06 18:25 3.0M
20260506T12Z_MSC_CAPS_UpwardShortwaveRadiationFlux_NTAtm_RLatLon0.03_PT039H.grib2 2026-05-06 18:25 2.0M
20260506T12Z_MSC_CAPS_VerticalVelocity_IsbL-0250_RLatLon0.03_PT039H.grib2 2026-05-06 18:25 1.2M
20260506T12Z_MSC_CAPS_VerticalVelocity_IsbL-0500_RLatLon0.03_PT039H.grib2 2026-05-06 18:25 1.2M
20260506T12Z_MSC_CAPS_VerticalVelocity_IsbL-0700_RLatLon0.03_PT039H.grib2 2026-05-06 18:25 1.2M
20260506T12Z_MSC_CAPS_VerticalVelocity_IsbL-0850_RLatLon0.03_PT039H.grib2 2026-05-06 18:25 1.1M
20260506T12Z_MSC_CAPS_VerticalVelocity_IsbL-1000_RLatLon0.03_PT039H.grib2 2026-05-06 18:25 1.3M
20260506T12Z_MSC_CAPS_WindDir_AGL-10m_RLatLon0.03_PT039H.grib2 2026-05-06 18:25 2.5M
20260506T12Z_MSC_CAPS_WindDir_AGL-120m_RLatLon0.03_PT039H.grib2 2026-05-06 18:25 1.3M
20260506T12Z_MSC_CAPS_WindDir_AGL-40m_RLatLon0.03_PT039H.grib2 2026-05-06 18:25 1.4M
20260506T12Z_MSC_CAPS_WindDir_AGL-80m_RLatLon0.03_PT039H.grib2 2026-05-06 18:25 1.3M
20260506T12Z_MSC_CAPS_WindDir_IsbL-0050_RLatLon0.03_PT039H.grib2 2026-05-06 18:25 1.1M
20260506T12Z_MSC_CAPS_WindDir_IsbL-0100_RLatLon0.03_PT039H.grib2 2026-05-06 18:25 1.1M
20260506T12Z_MSC_CAPS_WindDir_IsbL-0150_RLatLon0.03_PT039H.grib2 2026-05-06 18:25 1.0M
20260506T12Z_MSC_CAPS_WindDir_IsbL-0175_RLatLon0.03_PT039H.grib2 2026-05-06 18:25 1.1M
20260506T12Z_MSC_CAPS_WindDir_IsbL-0200_RLatLon0.03_PT039H.grib2 2026-05-06 18:25 1.1M
20260506T12Z_MSC_CAPS_WindDir_IsbL-0225_RLatLon0.03_PT039H.grib2 2026-05-06 18:25 1.1M
20260506T12Z_MSC_CAPS_WindDir_IsbL-0250_RLatLon0.03_PT039H.grib2 2026-05-06 18:25 1.1M
20260506T12Z_MSC_CAPS_WindDir_IsbL-0275_RLatLon0.03_PT039H.grib2 2026-05-06 18:25 1.1M
20260506T12Z_MSC_CAPS_WindDir_IsbL-0300_RLatLon0.03_PT039H.grib2 2026-05-06 18:25 1.1M
20260506T12Z_MSC_CAPS_WindDir_IsbL-0350_RLatLon0.03_PT039H.grib2 2026-05-06 18:25 1.1M
20260506T12Z_MSC_CAPS_WindDir_IsbL-0400_RLatLon0.03_PT039H.grib2 2026-05-06 18:25 1.2M
20260506T12Z_MSC_CAPS_WindDir_IsbL-0450_RLatLon0.03_PT039H.grib2 2026-05-06 18:25 1.2M
20260506T12Z_MSC_CAPS_WindDir_IsbL-0500_RLatLon0.03_PT039H.grib2 2026-05-06 18:25 1.3M
20260506T12Z_MSC_CAPS_WindDir_IsbL-0550_RLatLon0.03_PT039H.grib2 2026-05-06 18:25 1.3M
20260506T12Z_MSC_CAPS_WindDir_IsbL-0600_RLatLon0.03_PT039H.grib2 2026-05-06 18:25 1.3M
20260506T12Z_MSC_CAPS_WindDir_IsbL-0650_RLatLon0.03_PT039H.grib2 2026-05-06 18:25 1.4M
20260506T12Z_MSC_CAPS_WindDir_IsbL-0700_RLatLon0.03_PT039H.grib2 2026-05-06 18:25 1.5M
20260506T12Z_MSC_CAPS_WindDir_IsbL-0750_RLatLon0.03_PT039H.grib2 2026-05-06 18:25 1.7M
20260506T12Z_MSC_CAPS_WindDir_IsbL-0800_RLatLon0.03_PT039H.grib2 2026-05-06 18:25 1.8M
20260506T12Z_MSC_CAPS_WindDir_IsbL-0850_RLatLon0.03_PT039H.grib2 2026-05-06 18:25 1.9M
20260506T12Z_MSC_CAPS_WindDir_IsbL-0875_RLatLon0.03_PT039H.grib2 2026-05-06 18:25 1.9M
20260506T12Z_MSC_CAPS_WindDir_IsbL-0900_RLatLon0.03_PT039H.grib2 2026-05-06 18:25 2.0M
20260506T12Z_MSC_CAPS_WindDir_IsbL-0925_RLatLon0.03_PT039H.grib2 2026-05-06 18:25 2.0M
20260506T12Z_MSC_CAPS_WindDir_IsbL-0950_RLatLon0.03_PT039H.grib2 2026-05-06 18:25 2.1M
20260506T12Z_MSC_CAPS_WindDir_IsbL-0970_RLatLon0.03_PT039H.grib2 2026-05-06 18:25 2.2M
20260506T12Z_MSC_CAPS_WindDir_IsbL-0985_RLatLon0.03_PT039H.grib2 2026-05-06 18:25 2.3M
20260506T12Z_MSC_CAPS_WindDir_IsbL-1000_RLatLon0.03_PT039H.grib2 2026-05-06 18:25 2.4M
20260506T12Z_MSC_CAPS_WindDir_IsbL-1015_RLatLon0.03_PT039H.grib2 2026-05-06 18:25 2.4M
20260506T12Z_MSC_CAPS_WindGust-Max_AGL-10m_RLatLon0.03_PT039H.grib2 2026-05-06 18:25 2.4M
20260506T12Z_MSC_CAPS_WindGust-Min_AGL-10m_RLatLon0.03_PT039H.grib2 2026-05-06 18:25 2.4M
20260506T12Z_MSC_CAPS_WindGust_AGL-10m_RLatLon0.03_PT039H.grib2 2026-05-06 18:25 2.5M
20260506T12Z_MSC_CAPS_WindSpeed_AGL-10m_RLatLon0.03_PT039H.grib2 2026-05-06 18:25 2.1M
20260506T12Z_MSC_CAPS_WindSpeed_AGL-120m_RLatLon0.03_PT039H.grib2 2026-05-06 18:25 1.1M
20260506T12Z_MSC_CAPS_WindSpeed_AGL-40m_RLatLon0.03_PT039H.grib2 2026-05-06 18:25 1.5M
20260506T12Z_MSC_CAPS_WindSpeed_AGL-80m_RLatLon0.03_PT039H.grib2 2026-05-06 18:25 1.4M
20260506T12Z_MSC_CAPS_WindSpeed_IsbL-0050_RLatLon0.03_PT039H.grib2 2026-05-06 18:25 935K
20260506T12Z_MSC_CAPS_WindSpeed_IsbL-0100_RLatLon0.03_PT039H.grib2 2026-05-06 18:25 1.3M
20260506T12Z_MSC_CAPS_WindSpeed_IsbL-0150_RLatLon0.03_PT039H.grib2 2026-05-06 18:25 1.0M
20260506T12Z_MSC_CAPS_WindSpeed_IsbL-0175_RLatLon0.03_PT039H.grib2 2026-05-06 18:25 856K
20260506T12Z_MSC_CAPS_WindSpeed_IsbL-0200_RLatLon0.03_PT039H.grib2 2026-05-06 18:25 881K
20260506T12Z_MSC_CAPS_WindSpeed_IsbL-0225_RLatLon0.03_PT039H.grib2 2026-05-06 18:25 1.0M
20260506T12Z_MSC_CAPS_WindSpeed_IsbL-0250_RLatLon0.03_PT039H.grib2 2026-05-06 18:25 1.0M
20260506T12Z_MSC_CAPS_WindSpeed_IsbL-0275_RLatLon0.03_PT039H.grib2 2026-05-06 18:25 1.0M
20260506T12Z_MSC_CAPS_WindSpeed_IsbL-0300_RLatLon0.03_PT039H.grib2 2026-05-06 18:25 1.0M
20260506T12Z_MSC_CAPS_WindSpeed_IsbL-0350_RLatLon0.03_PT039H.grib2 2026-05-06 18:25 1.0M
20260506T12Z_MSC_CAPS_WindSpeed_IsbL-0400_RLatLon0.03_PT039H.grib2 2026-05-06 18:25 1.3M
20260506T12Z_MSC_CAPS_WindSpeed_IsbL-0450_RLatLon0.03_PT039H.grib2 2026-05-06 18:25 1.3M
20260506T12Z_MSC_CAPS_WindSpeed_IsbL-0500_RLatLon0.03_PT039H.grib2 2026-05-06 18:25 1.4M
20260506T12Z_MSC_CAPS_WindSpeed_IsbL-0550_RLatLon0.03_PT039H.grib2 2026-05-06 18:25 1.5M
20260506T12Z_MSC_CAPS_WindSpeed_IsbL-0600_RLatLon0.03_PT039H.grib2 2026-05-06 18:25 1.4M
20260506T12Z_MSC_CAPS_WindSpeed_IsbL-0650_RLatLon0.03_PT039H.grib2 2026-05-06 18:25 1.5M
20260506T12Z_MSC_CAPS_WindSpeed_IsbL-0700_RLatLon0.03_PT039H.grib2 2026-05-06 18:25 1.5M
20260506T12Z_MSC_CAPS_WindSpeed_IsbL-0750_RLatLon0.03_PT039H.grib2 2026-05-06 18:25 1.6M
20260506T12Z_MSC_CAPS_WindSpeed_IsbL-0800_RLatLon0.03_PT039H.grib2 2026-05-06 18:25 1.7M
20260506T12Z_MSC_CAPS_WindSpeed_IsbL-0850_RLatLon0.03_PT039H.grib2 2026-05-06 18:25 1.7M
20260506T12Z_MSC_CAPS_WindSpeed_IsbL-0875_RLatLon0.03_PT039H.grib2 2026-05-06 18:25 1.7M
20260506T12Z_MSC_CAPS_WindSpeed_IsbL-0900_RLatLon0.03_PT039H.grib2 2026-05-06 18:25 1.8M
20260506T12Z_MSC_CAPS_WindSpeed_IsbL-0925_RLatLon0.03_PT039H.grib2 2026-05-06 18:25 1.8M
20260506T12Z_MSC_CAPS_WindSpeed_IsbL-0950_RLatLon0.03_PT039H.grib2 2026-05-06 18:25 1.9M
20260506T12Z_MSC_CAPS_WindSpeed_IsbL-0970_RLatLon0.03_PT039H.grib2 2026-05-06 18:25 2.0M
20260506T12Z_MSC_CAPS_WindSpeed_IsbL-0985_RLatLon0.03_PT039H.grib2 2026-05-06 18:25 2.0M
20260506T12Z_MSC_CAPS_WindSpeed_IsbL-1000_RLatLon0.03_PT039H.grib2 2026-05-06 18:25 2.0M
20260506T12Z_MSC_CAPS_WindSpeed_IsbL-1015_RLatLon0.03_PT039H.grib2 2026-05-06 18:25 2.0M
20260506T12Z_MSC_CAPS_WindU_AGL-10m_RLatLon0.03_PT039H.grib2 2026-05-06 18:25 2.0M
20260506T12Z_MSC_CAPS_WindU_AGL-120m_RLatLon0.03_PT039H.grib2 2026-05-06 18:25 1.1M
20260506T12Z_MSC_CAPS_WindU_AGL-40m_RLatLon0.03_PT039H.grib2 2026-05-06 18:25 1.2M
20260506T12Z_MSC_CAPS_WindU_AGL-80m_RLatLon0.03_PT039H.grib2 2026-05-06 18:25 1.1M
20260506T12Z_MSC_CAPS_WindU_IsbL-0050_RLatLon0.03_PT039H.grib2 2026-05-06 18:25 936K
20260506T12Z_MSC_CAPS_WindU_IsbL-0100_RLatLon0.03_PT039H.grib2 2026-05-06 18:25 951K
20260506T12Z_MSC_CAPS_WindU_IsbL-0150_RLatLon0.03_PT039H.grib2 2026-05-06 18:25 917K
20260506T12Z_MSC_CAPS_WindU_IsbL-0175_RLatLon0.03_PT039H.grib2 2026-05-06 18:25 946K
20260506T12Z_MSC_CAPS_WindU_IsbL-0200_RLatLon0.03_PT039H.grib2 2026-05-06 18:25 752K
20260506T12Z_MSC_CAPS_WindU_IsbL-0225_RLatLon0.03_PT039H.grib2 2026-05-06 18:25 898K
20260506T12Z_MSC_CAPS_WindU_IsbL-0250_RLatLon0.03_PT039H.grib2 2026-05-06 18:25 919K
20260506T12Z_MSC_CAPS_WindU_IsbL-0275_RLatLon0.03_PT039H.grib2 2026-05-06 18:25 921K
20260506T12Z_MSC_CAPS_WindU_IsbL-0300_RLatLon0.03_PT039H.grib2 2026-05-06 18:25 929K
20260506T12Z_MSC_CAPS_WindU_IsbL-0350_RLatLon0.03_PT039H.grib2 2026-05-06 18:25 941K
20260506T12Z_MSC_CAPS_WindU_IsbL-0400_RLatLon0.03_PT039H.grib2 2026-05-06 18:25 952K
20260506T12Z_MSC_CAPS_WindU_IsbL-0450_RLatLon0.03_PT039H.grib2 2026-05-06 18:25 972K
20260506T12Z_MSC_CAPS_WindU_IsbL-0500_RLatLon0.03_PT039H.grib2 2026-05-06 18:25 1.0M
20260506T12Z_MSC_CAPS_WindU_IsbL-0550_RLatLon0.03_PT039H.grib2 2026-05-06 18:25 926K
20260506T12Z_MSC_CAPS_WindU_IsbL-0600_RLatLon0.03_PT039H.grib2 2026-05-06 18:25 950K
20260506T12Z_MSC_CAPS_WindU_IsbL-0650_RLatLon0.03_PT039H.grib2 2026-05-06 18:25 1.2M
20260506T12Z_MSC_CAPS_WindU_IsbL-0700_RLatLon0.03_PT039H.grib2 2026-05-06 18:25 1.3M
20260506T12Z_MSC_CAPS_WindU_IsbL-0750_RLatLon0.03_PT039H.grib2 2026-05-06 18:25 1.4M
20260506T12Z_MSC_CAPS_WindU_IsbL-0800_RLatLon0.03_PT039H.grib2 2026-05-06 18:25 1.1M
20260506T12Z_MSC_CAPS_WindU_IsbL-0850_RLatLon0.03_PT039H.grib2 2026-05-06 18:25 1.2M
20260506T12Z_MSC_CAPS_WindU_IsbL-0875_RLatLon0.03_PT039H.grib2 2026-05-06 18:25 1.2M
20260506T12Z_MSC_CAPS_WindU_IsbL-0900_RLatLon0.03_PT039H.grib2 2026-05-06 18:25 1.3M
20260506T12Z_MSC_CAPS_WindU_IsbL-0925_RLatLon0.03_PT039H.grib2 2026-05-06 18:25 1.3M
20260506T12Z_MSC_CAPS_WindU_IsbL-0950_RLatLon0.03_PT039H.grib2 2026-05-06 18:25 1.3M
20260506T12Z_MSC_CAPS_WindU_IsbL-0970_RLatLon0.03_PT039H.grib2 2026-05-06 18:25 1.4M
20260506T12Z_MSC_CAPS_WindU_IsbL-0985_RLatLon0.03_PT039H.grib2 2026-05-06 18:25 1.8M
20260506T12Z_MSC_CAPS_WindU_IsbL-1000_RLatLon0.03_PT039H.grib2 2026-05-06 18:25 1.8M
20260506T12Z_MSC_CAPS_WindU_IsbL-1015_RLatLon0.03_PT039H.grib2 2026-05-06 18:25 2.0M
20260506T12Z_MSC_CAPS_WindV_AGL-10m_RLatLon0.03_PT039H.grib2 2026-05-06 18:25 1.9M
20260506T12Z_MSC_CAPS_WindV_AGL-120m_RLatLon0.03_PT039H.grib2 2026-05-06 18:25 1.1M
20260506T12Z_MSC_CAPS_WindV_AGL-40m_RLatLon0.03_PT039H.grib2 2026-05-06 18:25 1.2M
20260506T12Z_MSC_CAPS_WindV_AGL-80m_RLatLon0.03_PT039H.grib2 2026-05-06 18:25 1.1M
20260506T12Z_MSC_CAPS_WindV_IsbL-0050_RLatLon0.03_PT039H.grib2 2026-05-06 18:25 765K
20260506T12Z_MSC_CAPS_WindV_IsbL-0100_RLatLon0.03_PT039H.grib2 2026-05-06 18:25 781K
20260506T12Z_MSC_CAPS_WindV_IsbL-0150_RLatLon0.03_PT039H.grib2 2026-05-06 18:25 905K
20260506T12Z_MSC_CAPS_WindV_IsbL-0175_RLatLon0.03_PT039H.grib2 2026-05-06 18:25 844K
20260506T12Z_MSC_CAPS_WindV_IsbL-0200_RLatLon0.03_PT039H.grib2 2026-05-06 18:25 870K
20260506T12Z_MSC_CAPS_WindV_IsbL-0225_RLatLon0.03_PT039H.grib2 2026-05-06 18:25 681K
20260506T12Z_MSC_CAPS_WindV_IsbL-0250_RLatLon0.03_PT039H.grib2 2026-05-06 18:25 696K
20260506T12Z_MSC_CAPS_WindV_IsbL-0275_RLatLon0.03_PT039H.grib2 2026-05-06 18:25 704K
20260506T12Z_MSC_CAPS_WindV_IsbL-0300_RLatLon0.03_PT039H.grib2 2026-05-06 18:25 711K
20260506T12Z_MSC_CAPS_WindV_IsbL-0350_RLatLon0.03_PT039H.grib2 2026-05-06 18:25 720K
20260506T12Z_MSC_CAPS_WindV_IsbL-0400_RLatLon0.03_PT039H.grib2 2026-05-06 18:25 945K
20260506T12Z_MSC_CAPS_WindV_IsbL-0450_RLatLon0.03_PT039H.grib2 2026-05-06 18:25 965K
20260506T12Z_MSC_CAPS_WindV_IsbL-0500_RLatLon0.03_PT039H.grib2 2026-05-06 18:25 1.0M
20260506T12Z_MSC_CAPS_WindV_IsbL-0550_RLatLon0.03_PT039H.grib2 2026-05-06 18:25 1.0M
20260506T12Z_MSC_CAPS_WindV_IsbL-0600_RLatLon0.03_PT039H.grib2 2026-05-06 18:25 934K
20260506T12Z_MSC_CAPS_WindV_IsbL-0650_RLatLon0.03_PT039H.grib2 2026-05-06 18:25 966K
20260506T12Z_MSC_CAPS_WindV_IsbL-0700_RLatLon0.03_PT039H.grib2 2026-05-06 18:25 1.0M
20260506T12Z_MSC_CAPS_WindV_IsbL-0750_RLatLon0.03_PT039H.grib2 2026-05-06 18:25 1.1M
20260506T12Z_MSC_CAPS_WindV_IsbL-0800_RLatLon0.03_PT039H.grib2 2026-05-06 18:25 1.1M
20260506T12Z_MSC_CAPS_WindV_IsbL-0850_RLatLon0.03_PT039H.grib2 2026-05-06 18:25 1.2M
20260506T12Z_MSC_CAPS_WindV_IsbL-0875_RLatLon0.03_PT039H.grib2 2026-05-06 18:25 1.2M
20260506T12Z_MSC_CAPS_WindV_IsbL-0900_RLatLon0.03_PT039H.grib2 2026-05-06 18:25 1.6M
20260506T12Z_MSC_CAPS_WindV_IsbL-0925_RLatLon0.03_PT039H.grib2 2026-05-06 18:25 1.6M
20260506T12Z_MSC_CAPS_WindV_IsbL-0950_RLatLon0.03_PT039H.grib2 2026-05-06 18:25 1.7M
20260506T12Z_MSC_CAPS_WindV_IsbL-0970_RLatLon0.03_PT039H.grib2 2026-05-06 18:25 1.7M
20260506T12Z_MSC_CAPS_WindV_IsbL-0985_RLatLon0.03_PT039H.grib2 2026-05-06 18:25 1.8M
20260506T12Z_MSC_CAPS_WindV_IsbL-1000_RLatLon0.03_PT039H.grib2 2026-05-06 18:25 2.0M
20260506T12Z_MSC_CAPS_WindV_IsbL-1015_RLatLon0.03_PT039H.grib2 2026-05-06 18:25 1.9M